SCP
1 1 2 2 2 3 3 4 4 4 4 3 3 3 3 2 2 2 2 1 1 1 1 1 1 0 0 0 0 0 0 0 0 0 0 0 0 0 0 0 0 0 0
1 1 2 2 2 2 3 3 4 4 4 3 3 3 2 2 2 2 1 1 1 1 1 1 0 0 0 0 0 0 0 0 0 0 0 0 0 0 0 0 0 0 0
1 2 2 2 2 2 3 3 3 3 3 3 3 2 2 2 2 2 1 1 1 1 1 0 0 0 0 0 0 0 0 0 0 0 0 0 0 0 0 0 0 0 0
2 2 2 2 2 2 2 2 3 3 3 3 3 2 2 2 2 1 1 1 1 1 1 0 0 0 0 0 0 0 0 0 0 0 0 0 0 0 0 0 0 0 0
1 1 1 1 1 2 2 2 2 2 3 3 3 2 2 2 1 1 1 1 1 1 1 0 0 0 0 0 0 0 0 0 0 0 0 0 0 0 0 0 0 0 0
1 1 1 1 2 2 2 2 2 2 2 2 2 2 2 1 1 1 1 1 1 1 1 0 0 0 0 0 0 0 0 0 0 0 0 0 0 0 0 0 0 0 0
1 1 1 1 2 2 2 1 1 2 2 2 2 2 2 1 1 1 1 1 1 1 0 0 0 0 0 0 0 0 0 0 0 0 0 0 0 0 0 0 0 0 0
1 1 1 1 1 1 1 1 1 1 1 1 1 1 1 1 1 1 1 1 1 0 0 0 0 0 0 0 0 0 0 0 0 0 0 0 0 0 0 0 0 0 0
1 1 1 1 1 1 1 1 1 1 1 1 1 1 1 1 1 1 1 1 0 0 0 0 0 0 0 0 0 0 0 0 0 0 0 0 0 0 0 0 0 0 0
1 1 1 1 1 1 1 1 1 1 1 1 1 1 1 1 1 1 1 1 0 0 0 0 0 0 0 0 0 0 0 0 0 0 0 0 0 0 0 0 0 0 0
0 0 1 1 1 1 1 1 1 1 1 1 1 1 1 1 1 1 1 0 0 0 0 0 0 0 0 0 0 0 0 0 0 0 0 0 0 0 0 0 0 0 0
0 0 0 0 1 1 0 0 0 0 0 0 0 1 1 1 1 0 0 0 0 0 0 0 0 0 0 0 0 0 0 0 0 0 0 0 0 0 0 0 0 0 0
0 0 0 0 0 0 0 0 0 0 0 0 0 0 0 0 0 0 0 0 0 0 0 0 0 0 0 0 0 0 0 0 0 0 0 0 0 0 0 0 0 0 0
0 0 0 0 0 0 0 0 0 0 0 0 0 0 0 0 0 0 0 0 0 0 0 0 0 0 0 0 0 0 0 0 0 0 0 0 0 0 0 0 0 0 0
0 0 0 0 0 0 0 0 0 0 0 0 0 0 0 0 0 0 0 0 0 0 0 0 0 0 0 0 0 0 0 0 0 0 0 0 0 0 0 0 0 0 0
0 0 0 0 0 0 0 0 0 0 0 0 0 0 0 0 0 0 0 0 0 0 0 0 0 0 0 0 0 0 0 0 0 0 0 0 0 0 0 0 0 0 0
0 0 0 0 0 0 0 0 0 0 0 0 0 0 0 0 0 0 0 0 0 0 0 0 0 0 0 0 0 0 0 0 0 0 0 0 0 0 0 0 0 0 0
0 0 0 0 0 0 0 0 0 0 0 0 0 0 0 0 0 0 0 0 0 0 0 0 0 0 0 0 0 0 0 0 0 0 0 0 0 0 0 0 0 0 0
0 0 0 0 0 0 0 0 0 0 0 0 0 0 0 0 0 0 0 0 0 0 0 0 0 0 0 0 0 0 0 0 0 0 0 0 0 0 0 0 0 0 0
0 0 0 0 0 0 0 0 0 0 0 0 0 0 0 0 0 0 0 0 0 0 0 0 0 0 0 0 0 0 0 0 0 0 0 0 0 0 0 0 0 0 0
0 0 0 0 0 0 0 0 0 0 0 0 0 0 0 0 0 0 0 0 0 0 0 0 0 0 0 0 0 0 0 0 0 0 0 0 0 0 0 0 0 0 0
0 0 0 0 0 0 0 0 0 0 0 0 0 0 0 0 0 0 0 0 0 0 0 0 0 0 0 0 0 0 0 0 0 0 0 0 0 0 0 0 0 0 0
0 0 0 0 0 0 0 0 0 0 0 0 0 0 0 0 0 0 0 0 0 0 0 0 0 0 0 0 0 0 0 0 0 0 0 0 0 0 0 0 0 0 0
0 0 0 0 0 0 0 0 0 0 0 0 0 0 0 0 0 0 0 0 0 0 0 0 0 0 0 0 0 0 0 0 0 0 0 0 0 0 0 0 0 0 0
0 0 0 0 0 0 0 0 0 0 0 0 0 0 0 0 0 0 0 0 0 0 0 0 0 0 0 0 0 0 0 0 0 0 0 0 0 0 0 0 0 0 0
0 0 0 0 0 0 0 0 0 0 0 0 0 0 0 0 0 0 0 0 0 0 0 0 0 0 0 0 0 0 0 0 0 0 0 0 0 0 0 0 0 0 0
Wind_Speed
6 6 7 7 7 6 6 5 5 5 4 3 3 2 2 2 2 2 2 2 1 1 2 2 1 1 1 2 3 3 4 3 3 4 5 5 5 4 3 2 3 3 3
5 6 6 7 6 6 6 5 5 5 4 3 2 2 1 1 2 1 2 2 1 2 2 1 2 1 1 3 3 3 3 4 3 2 4 4 2 2 3 2 3 2 2
6 6 5 5 5 5 5 4 4 5 4 4 3 1 1 1 1 2 2 2 2 2 2 2 2 2 2 2 2 3 3 4 4 2 2 2 2 3 2 3 2 2 2
6 5 5 4 4 4 5 4 4 4 4 4 4 4 3 2 2 1 2 2 3 3 3 2 2 2 2 2 3 2 3 4 4 3 3 3 2 2 3 3 2 2 2
4 5 5 5 4 4 4 4 4 3 3 3 3 3 2 1 1 1 2 2 3 3 3 2 2 2 2 2 3 3 3 3 4 3 3 3 3 4 3 4 3 3 2
4 4 4 5 5 4 4 4 4 3 3 3 3 3 2 2 1 2 2 2 2 2 2 2 2 2 2 2 3 3 4 3 4 4 3 3 3 3 2 3 3 3 3
5 4 4 4 5 4 4 4 4 2 2 3 3 3 3 3 3 3 2 2 2 2 1 2 2 2 2 3 3 3 3 3 4 4 4 3 4 3 3 3 3 3 3
5 5 5 5 4 4 4 4 3 3 2 1 2 2 2 2 2 1 2 2 2 1 1 2 2 2 3 3 2 3 3 3 3 5 4 3 4 3 3 2 2 3 3
5 5 5 5 5 4 4 3 2 2 2 1 1 2 2 2 2 2 3 2 1 2 1 1 2 3 3 3 3 2 3 3 3 4 4 3 3 3 2 2 2 3 4
5 4 4 4 4 4 3 3 3 2 1 1 1 1 2 2 2 3 3 2 1 1 2 2 2 2 3 2 2 3 2 3 3 3 4 3 3 3 2 3 3 2 3
4 4 4 4 3 3 3 2 2 1 1 1 1 1 1 2 2 2 2 1 1 1 2 2 2 2 3 2 2 4 3 3 3 4 4 3 3 3 3 2 2 2 2
4 4 4 4 3 3 2 1 1 1 1 1 1 1 0 1 2 2 2 1 1 1 1 2 2 3 3 2 3 4 3 3 4 3 4 4 3 3 3 3 3 3 3
5 5 4 4 3 3 3 1 1 0 1 0 1 1 1 1 2 3 2 1 2 2 2 2 2 3 2 2 3 3 3 4 3 3 4 4 4 4 3 3 3 3 4
5 4 3 3 3 2 2 2 2 1 1 1 1 1 1 1 2 3 2 2 2 2 2 2 2 2 2 2 3 3 3 4 4 4 4 4 4 4 4 4 3 3 3
5 5 4 3 2 2 2 3 3 2 2 2 2 2 1 1 2 2 3 2 2 3 2 2 2 2 2 2 3 4 4 4 4 4 4 4 4 4 4 4 3 3 3
5 6 4 3 2 2 2 2 3 2 2 2 3 2 2 2 2 2 2 2 2 2 2 2 2 2 2 3 4 4 5 4 4 5 4 4 3 4 5 6 6 5 4
5 6 6 4 3 2 2 2 2 2 2 2 3 2 2 2 2 3 2 2 2 2 2 2 2 2 2 3 4 5 4 4 4 4 4 5 4 4 3 4 6 6 8
5 5 5 4 3 2 2 2 2 2 2 2 2 3 3 2 2 2 2 2 2 2 2 2 2 2 2 3 4 5 4 4 4 4 4 4 4 5 3 4 4 4 5
3 4 4 4 3 3 3 2 2 3 3 3 3 3 3 2 2 2 2 2 2 3 3 3 3 2 2 3 3 3 3 3 4 4 4 4 3 2 3 3 4 5 5
3 3 4 4 3 3 2 3 3 3 3 3 3 3 3 3 3 2 3 3 3 3 4 3 2 3 2 3 3 3 3 3 3 3 2 2 2 2 2 3 4 5 5
4 4 4 4 3 3 2 3 3 3 3 3 3 3 3 3 3 2 3 2 3 3 4 3 3 3 2 2 2 3 2 3 4 3 3 2 2 4 4 4 4 6 6
4 4 4 4 3 3 2 3 3 3 3 3 3 3 3 4 3 2 2 3 3 3 3 3 3 2 2 1 2 3 4 4 4 4 3 3 6 7 8 6 7 8 6
4 4 4 4 3 3 2 3 3 3 4 3 3 3 3 3 3 3 2 2 2 2 3 2 2 1 1 1 1 2 4 5 4 4 6 8 9 9 7 9 9 6 4
4 4 5 4 4 3 2 3 4 3 3 3 3 3 3 3 2 2 2 2 2 2 2 2 1 1 1 2 1 2 3 4 4 4 7 9 9 8 8 7 4 4 4
3 3 4 4 4 4 3 3 3 2 2 3 3 3 4 3 2 1 1 2 1 1 1 2 2 2 2 2 3 3 3 3 4 5 4 4 4 4 3 3 2 2 2
3 3 4 5 5 4 3 3 2 2 2 3 3 3 3 2 2 2 1 0 1 1 1 1 2 2 1 3 5 6 5 5 4 3 4 4 4 4 4 4 3 2 2
Wind_Direction
146 140 142 143 146 150 153 156 162 158 163 170 181 189 195 199 181 185 168 178 220 259 270 269 271 266 272 292 290 285 283 277 277 287 287 266 250 246 241 235 247 251 257
139 137 141 147 152 156 157 161 166 166 170 164 170 196 193 201 178 163 150 180 205 246 249 252 266 261 276 277 280 289 292 293 288 289 298 291 273 288 266 240 242 252 259
157 148 142 139 141 147 152 166 162 161 167 163 168 184 188 213 186 173 174 187 205 229 260 244 259 274 260 272 289 286 281 283 285 260 271 296 304 315 289 285 279 263 259
144 144 144 141 141 137 137 144 152 160 167 172 177 194 205 207 202 187 170 191 219 222 230 240 250 268 270 271 274 273 282 280 284 278 253 252 274 280 297 299 298 285 272
125 135 141 134 131 131 129 135 148 153 164 178 175 192 214 209 191 182 183 208 217 217 226 228 244 256 263 265 282 289 276 275 279 285 288 279 271 251 265 291 302 303 296
104 102 113 120 118 116 113 118 131 140 160 181 177 196 205 208 205 220 222 233 233 229 232 235 243 263 267 262 261 271 276 276 280 285 286 282 279 276 269 275 289 293 287
78 82 95 104 107 106 112 120 125 138 161 183 178 193 212 220 219 226 235 248 249 242 239 269 252 258 256 255 259 267 272 278 280 277 275 277 273 271 271 266 281 292 289
56 60 66 71 83 98 108 112 125 133 138 157 170 187 204 233 239 251 271 262 263 265 256 257 259 264 266 269 263 268 269 272 277 280 281 282 281 273 266 265 281 294 290
56 57 65 65 70 75 84 98 110 117 123 132 148 193 215 239 249 254 256 265 280 276 281 263 270 274 274 272 271 258 265 274 272 276 277 274 284 289 288 283 260 261 287
45 58 59 59 69 73 72 83 90 107 125 148 206 222 230 246 244 256 260 261 265 286 289 276 278 282 282 281 281 278 256 260 269 267 269 275 277 288 285 277 275 267 269
41 43 55 54 64 76 78 73 84 104 134 183 208 246 260 274 270 267 263 261 274 269 271 277 273 274 275 275 271 271 267 262 264 269 276 276 275 284 281 280 278 273 267
45 47 42 54 50 48 56 75 129 172 191 191 175 171 231 292 287 284 284 290 274 272 278 273 267 270 274 268 267 271 275 273 273 279 285 288 286 278 274 277 279 279 273
38 49 43 39 33 21 17 357 343 236 229 237 198 211 235 289 302 285 274 264 259 259 272 272 270 277 281 273 270 273 280 280 279 277 279 280 280 280 279 278 278 279 285
32 31 35 26 17 18 12 350 353 343 335 332 302 282 257 270 295 293 287 278 278 280 271 274 280 281 291 303 301 292 284 284 286 282 277 276 276 276 281 282 277 283 288
17 18 11 7 5 2 3 358 347 346 347 314 291 282 260 232 254 275 282 278 282 290 301 305 299 297 306 337 332 311 298 300 295 290 281 272 280 282 279 288 287 291 287
9 358 351 353 348 342 336 343 333 327 313 296 289 280 276 267 258 256 256 259 264 281 291 298 311 321 322 329 325 319 303 296 293 293 288 274 276 279 266 264 264 261 268
358 349 346 341 336 331 324 318 306 301 298 291 289 287 275 274 275 272 262 266 275 280 284 285 292 298 327 316 319 313 295 290 290 290 291 294 298 295 286 278 266 266 261
353 344 334 334 331 333 329 301 298 296 289 292 305 303 282 278 275 273 259 253 263 265 262 269 268 280 299 312 316 309 282 285 287 288 288 288 286 298 310 303 302 294 289
346 331 323 326 323 315 309 294 303 305 307 312 305 298 296 288 273 267 275 266 259 263 259 257 261 267 269 282 290 299 286 290 296 297 304 300 302 329 318 296 300 302 301
346 334 324 323 322 321 316 304 303 306 308 303 297 301 305 298 276 259 258 260 255 258 263 263 267 272 263 264 279 289 280 297 305 306 308 327 327 321 310 294 296 295 298
340 333 325 325 317 315 317 318 311 309 307 300 299 306 304 297 287 267 264 263 261 265 263 267 257 246 233 222 237 253 268 296 303 309 315 316 313 295 287 279 271 272 289
329 325 322 322 311 298 294 303 304 305 301 295 300 305 302 298 296 284 277 268 261 264 265 269 266 228 210 226 238 253 257 282 296 301 308 317 315 301 290 278 266 276 292
326 322 314 312 304 291 279 290 296 296 293 288 296 294 292 290 285 272 274 273 261 262 269 265 268 261 188 196 246 261 273 279 279 296 309 306 294 293 284 270 265 264 256
323 316 313 314 310 302 292 278 281 286 291 285 280 273 275 271 271 282 291 280 291 292 294 302 315 338 24 26 6 322 299 290 287 301 300 291 281 276 275 275 258 244 248
311 304 306 307 305 300 300 290 286 288 291 286 272 270 266 254 251 244 317 315 338 333 323 338 339 348 344 336 317 305 308 324 328 312 294 290 293 292 286 283 275 268 268
296 293 294 297 299 300 302 301 279 276 285 285 281 279 273 255 242 213 199 6 228 153 87 14 348 355 326 313 322 318 311 310 315 305 285 294 302 310 317 317 319 311 308